Weather in Luchynets

Ukraine / Vinnytsia Region     48°43′11″N   27°50′40″E
temp.,
°C
wind,
m/s
gust,
m/s
humid.,
%
clouds,
%
prec.,
mm/h
press.,
hPa
HPBL,
m
9 may, sun
sun900:00+3wnw310881 0.0 1021217
03:00+2wnw37920 0.0 1023137
06:00+1wnw37920 0.0 1025138
09:00+8nw48644 0.0 1026669
12:00+12nw464720 0.0 10251827
15:00+14nw3540100 0.0 10252336
18:00+14wnw134044 0.0 10241975
21:00+9se22575 0.0 102611
10 may, mon
mon1000:00+7se33673 0.0 102733
03:00+6se33695 0.0 102732
06:00+5se34714 0.0 102743
09:00+11se57575 0.0 1027403
12:00+15se66475 0.0 10261294
15:00+17se564540 0.0 10251477
18:00+16se4553100 0.0 10241353
21:00+11ese48745 0.0 1024115
11 may, tue
tue1100:00+8ese48730 0.0 1025124
03:00+7ese49800 0.0 1024154
06:00+6e36780 0.0 1024102
09:00+12e45580 0.0 1023408
12:00+16e45450 0.0 10211140
15:00+17e44430 0.0 10201337
18:00+17ene455815 0.0 10181246
21:00+12ene35865 0.0 101883
12 may, wed
wed1200:00+10ene3109530 0.0 1017228
03:00+10e389751 0.0 1016299
06:00+7ene49963 0.0 1016250
09:00+10e67705 0.0 1015720
12:00+14e665557 0.0 10131470
15:00+13e5556100 0.0 10131573
18:00+12ese3459100 0.0 10121061
21:00+10e3570100 0.0 1011141
13 may, thu
thu1300:00+7ese498426 0.0 1010181
03:00+8ese51186100 0.4 1009403
06:00+8ese61390100 0.9 1007470
09:00+12sse91484100 0.9 1007950
12:00+12sse81383100 0.4 10061156
15:00+13sse61378100 0.6 10061279
18:00+13s5981100 0.1 1005580
21:00+11ssw2497100 0.8 1007144